EW8543 Weather Reports


Display with metric or nautical units.
time (UTC)temp
F
wind
direction
speed
MPH
gust
MPH
rain 1hr
in
rain 24hr
in
rain mn
in
humidity
%
barometer
mb
20260906213030 67 112 0.0 0.0 0.00 0.00 0.00 70 1019.3
20260906212533 67 112 0.0 1.0 0.00 0.00 0.00 69 1019.3
20260906212033 68 112 0.0 1.0 0.00 0.00 0.00 69 1019.4
20260906211536 68 112 0.0 2.0 0.00 0.00 0.00 69 1019.4
20260906211039 68 112 0.0 1.0 0.00 0.00 0.00 69 1019.3
20260906210602 68 112 0.0 2.0 0.00 0.00 0.00 68 1019.4
20260906210033 68 112 0.0 2.0 0.00 0.00 0.00 68 1019.4
20260906205536 68 112 0.0 3.0 0.00 0.00 0.00 68 1019.4
20260906205039 68 112 1.0 3.0 0.00 0.00 0.00 67 1019.5
20260906204543 69 112 0.0 2.0 0.00 0.00 0.00 67 1019.6
20260906204046 69 112 0.0 2.0 0.00 0.00 0.00 66 1019.7
20260906203527 69 112 0.0 3.0 0.00 0.00 0.00 66 1019.7
20260906203030 69 112 0.0 3.0 0.00 0.00 0.00 66 1019.7
20260906202531 69 112 1.0 3.0 0.00 0.00 0.00 65 1019.8
20260906202035 69 121 0.0 4.0 0.00 0.00 0.00 65 1019.8
20260906201535 69 121 1.0 4.0 0.00 0.00 0.00 65 1019.8
20260906201037 69 117 1.0 3.0 0.00 0.00 0.00 65 1019.9
20260906200542 69 112 1.0 4.0 0.00 0.00 0.00 65 1019.8
20260906200040 69 100 1.0 4.0 0.00 0.00 0.00 65 1019.8
20260906195559 69 90 1.0 5.0 0.00 0.00 0.00 65 1019.8
20260906195039 69 135 2.0 5.0 0.00 0.00 0.00 65 1020.0
20260906194545 69 104 0.0 3.0 0.00 0.00 0.00 65 1019.8
20260906193537 69 104 1.0 3.0 0.00 0.00 0.00 65 1020.0
20260906193029 70 119 1.0 3.0 0.00 0.00 0.00 65 1020.1
20260906192532 70 119 1.0 2.0 0.00 0.00 0.00 65 1020.2
20260906191529 70 119 0.0 2.0 0.00 0.00 0.00 64 1020.2
20260906191036 70 119 0.0 2.0 0.00 0.00 0.00 64 1020.3
20260906190600 70 119 0.0 2.0 0.00 0.00 0.00 63 1020.3
20260906190030 70 119 1.0 2.0 0.00 0.00 0.00 63 1020.4
20260906185528 70 119 0.0 2.0 0.00 0.00 0.00 63 1020.3
20260906185052 71 119 1.0 2.0 0.00 0.00 0.00 62 1020.3
20260906184536 71 119 0.0 0.0 0.00 0.00 0.00 61 1020.4
20260906184039 71 119 0.0 2.0 0.00 0.00 0.00 61 1020.3
20260906183538 71 119 0.0 2.0 0.00 0.00 0.00 61 1020.4
20260906183040 71 119 0.0 2.0 0.00 0.00 0.00 60 1020.3
20260906182543 72 119 0.0 2.0 0.00 0.00 0.00 60 1020.4
20260906182047 72 119 1.0 2.0 0.00 0.00 0.00 60 1020.4
20260906181527 72 134 0.0 2.0 0.00 0.00 0.00 60 1020.4
20260906181028 72 155 0.0 1.0 0.00 0.00 0.00 59 1020.5
20260906180533 73 155 0.0 1.0 0.00 0.00 0.00 58 1020.6
20260906180031 73 155 0.0 2.0 0.00 0.00 0.00 57 1020.7
20260906175534 73 155 1.0 2.0 0.00 0.00 0.00 57 1020.7
20260906175033 74 155 1.0 3.0 0.00 0.00 0.00 57 1020.7
20260906174539 74 155 1.0 3.0 0.00 0.00 0.00 57 1020.8
20260906174042 74 155 1.0 3.0 0.00 0.00 0.00 55 1020.8
20260906173546 74 169 0.0 5.0 0.00 0.00 0.00 55 1020.9
20260906173045 75 169 0.0 5.0 0.00 0.00 0.00 54 1021.0
20260906172527 75 139 1.0 4.0 0.00 0.00 0.00 54 1021.1
20260906172046 75 146 1.0 5.0 0.00 0.00 0.00 55 1021.1
20260906171528 75 144 0.0 6.0 0.00 0.00 0.00 54 1021.0
20260906171029 75 144 1.0 6.0 0.00 0.00 0.00 54 1021.1
20260906170527 75 150 2.0 5.0 0.00 0.00 0.00 53 1021.2
20260906170043 76 148 2.0 6.0 0.00 0.00 0.00 53 1021.2
20260906165527 76 103 3.0 8.0 0.00 0.00 0.00 52 1021.3
20260906165028 76 176 4.0 8.0 0.00 0.00 0.00 53 1021.4
20260906164527 76 141 2.0 7.0 0.00 0.00 0.00 52 1021.4
20260906164050 76 136 2.0 8.0 0.00 0.00 0.00 52 1021.5
20260906163533 76 117 2.0 8.0 0.00 0.00 0.00 51 1021.5
20260906163102 76 121 2.0 6.0 0.00 0.00 0.00 51 1021.6
20260906162533 77 117 2.0 6.0 0.00 0.00 0.00 51 1021.7
20260906162036 77 130 2.0 6.0 0.00 0.00 0.00 50 1021.8
20260906161539 77 97 1.0 8.0 0.00 0.00 0.00 50 1021.7
20260906161042 78 108 3.0 7.0 0.00 0.00 0.00 49 1021.7
20260906160544 78 148 2.0 5.0 0.00 0.00 0.00 49 1021.8
20260906160037 78 99 2.0 8.0 0.00 0.00 0.00 49 1021.7
20260906155601 78 146 3.0 9.0 0.00 0.00 0.00 49 1021.9
20260906155058 78 94 2.0 9.0 0.00 0.00 0.00 49 1021.9
20260906154540 78 129 3.0 9.0 0.00 0.00 0.00 49 1021.9
20260906154042 77 103 2.0 5.0 0.00 0.00 0.00 49 1022.0
20260906153544 77 123 2.0 8.0 0.00 0.00 0.00 50 1022.1
20260906153045 78 175 3.0 8.0 0.00 0.00 0.00 48 1022.2
20260906152544 78 153 2.0 8.0 0.00 0.00 0.00 48 1022.2
20260906152045 78 113 2.0 8.0 0.00 0.00 0.00 49 1022.2
20260906151531 78 215 4.0 8.0 0.00 0.00 0.00 48 1022.3
20260906151033 78 126 4.0 10.0 0.00 0.00 0.00 49 1022.2
20260906150533 78 189 3.0 11.0 0.00 0.00 0.00 48 1022.1
20260906150036 78 155 5.0 11.0 0.00 0.00 0.00 47 1022.1
20260906145531 78 141 3.0 11.0 0.00 0.00 0.00 48 1022.2
20260906145038 78 227 4.0 11.0 0.00 0.00 0.00 47 1022.2
20260906144539 78 106 3.0 8.0 0.00 0.00 0.00 49 1022.2
20260906144022 78 119 3.0 8.0 0.00 0.00 0.00 49 1022.2
20260906143551 78 149 3.0 6.0 0.00 0.00 0.00 49 1022.3
20260906143034 78 114 3.0 12.0 0.00 0.00 0.00 49 1022.4
20260906142522 78 120 3.0 12.0 0.00 0.00 0.00 48 1022.4
20260906142029 78 148 6.0 10.0 0.00 0.00 0.00 49 1022.4
20260906141529 78 96 5.0 10.0 0.00 0.00 0.00 49 1022.5
20260906141037 78 131 4.0 12.0 0.00 0.00 0.00 48 1022.7
20260906140544 78 95 4.0 12.0 0.00 0.00 0.00 48 1022.7
20260906140045 78 115 5.0 12.0 0.00 0.00 0.00 48 1022.8
20260906135527 78 161 3.0 11.0 0.00 0.00 0.00 49 1022.9
20260906135058 78 132 4.0 11.0 0.00 0.00 0.00 49 1023.0
20260906134525 77 127 3.0 7.0 0.00 0.00 0.00 50 1023.0
20260906134028 77 152 4.0 12.0 0.00 0.00 0.00 50 1023.1
20260906133532 77 148 7.0 12.0 0.00 0.00 0.00 49 1023.1
20260906133040 77 84 3.0 9.0 0.00 0.00 0.00 50 1023.1
20260906132551 77 133 4.0 10.0 0.00 0.00 0.00 50 1023.2
20260906132148 76 121 3.0 11.0 0.00 0.00 0.00 50 1023.3
20260906131523 76 116 4.0 11.0 0.00 0.00 0.00 50 1023.3
20260906131022 76 146 5.0 13.0 0.00 0.00 0.00 50 1023.4
20260906130529 76 91 6.0 13.0 0.00 0.00 0.00 49 1023.4
20260906130029 76 65 1.0 11.0 0.00 0.00 0.00 50 1023.2
20260906125539 76 114 3.0 11.0 0.00 0.00 0.00 51 1023.3
20260906125042 75 64 5.0 11.0 0.00 0.00 0.00 51 1023.4
20260906124551 75 140 4.0 12.0 0.00 0.00 0.00 52 1023.5
20260906124040 74 118 6.0 12.0 0.00 0.00 0.00 52 1023.5
20260906123548 74 100 4.0 13.0 0.00 0.00 0.00 53 1023.5
20260906123029 74 67 6.0 13.0 0.00 0.00 0.00 54 1023.7
20260906122537 73 113 4.0 10.0 0.00 0.00 0.00 54 1023.8
20260906122022 73 143 5.0 10.0 0.00 0.00 0.00 53 1023.9
20260906121530 73 122 5.0 11.0 0.00 0.00 0.00 54 1024.0
20260906121039 73 159 4.0 11.0 0.00 0.00 0.00 53 1024.0
20260906120522 74 115 5.0 13.0 0.00 0.00 0.00 52 1024.1
20260906120043 74 144 6.0 13.0 0.00 0.00 0.00 51 1024.1
20260906115527 74 118 3.0 12.0 0.00 0.00 0.00 52 1024.1
20260906115036 74 119 5.0 12.0 0.00 0.00 0.00 51 1024.1
20260906114525 74 122 5.0 10.0 0.00 0.00 0.00 51 1024.0
20260906114029 74 72 5.0 12.0 0.00 0.00 0.00 51 1024.1
20260906113538 74 111 3.0 12.0 0.00 0.00 0.00 52 1024.2
20260906113027 74 120 5.0 14.0 0.00 0.00 0.00 52 1024.3
20260906112556 73 141 4.0 11.0 0.00 0.00 0.00 52 1024.4
20260906112040 74 161 5.0 11.0 0.00 0.00 0.00 51 1024.4
20260906111528 74 71 4.0 13.0 0.00 0.00 0.00 52 1024.4
20260906111037 74 108 6.0 14.0 0.00 0.00 0.00 52 1024.4
20260906110544 74 143 6.0 14.0 0.00 0.00 0.00 52 1024.5
20260906110025 74 121 4.0 12.0 0.00 0.00 0.00 52 1024.5
20260906105526 73 85 1.0 12.0 0.00 0.00 0.00 53 1024.5
20260906105035 73 138 4.0 13.0 0.00 0.00 0.00 55 1024.7
20260906104522 72 134 4.0 13.0 0.00 0.00 0.00 55 1024.7
20260906104031 72 109 3.0 13.0 0.00 0.00 0.00 55 1024.7
20260906103535 72 182 6.0 13.0 0.00 0.00 0.00 55 1024.7
20260906103022 71 133 3.0 15.0 0.00 0.00 0.00 56 1024.8
20260906102532 71 122 3.0 15.0 0.00 0.00 0.00 56 1024.9
20260906102042 71 138 5.0 14.0 0.00 0.00 0.00 55 1025.0
20260906101529 71 104 6.0 14.0 0.00 0.00 0.00 55 1025.1
20260906101034 71 89 5.0 13.0 0.00 0.00 0.00 56 1025.1
20260906100520 71 128 5.0 15.0 0.00 0.00 0.00 56 1025.1
20260906100021 70 92 4.0 15.0 0.00 0.00 0.00 57 1025.2
20260906095527 69 149 5.0 13.0 0.00 0.00 0.00 57 1025.3
20260906095035 69 153 7.0 13.0 0.00 0.00 0.00 56 1025.3
20260906094519 70 117 4.0 12.0 0.00 0.00 0.00 57 1025.4
20260906094028 70 127 5.0 12.0 0.00 0.00 0.00 56 1025.4
20260906093536 71 149 5.0 11.0 0.00 0.00 0.00 57 1025.4
20260906093026 71 59 2.0 10.0 0.00 0.00 0.00 59 1025.4
20260906092549 71 130 3.0 11.0 0.00 0.00 0.00 59 1025.4
20260906092101 71 126 5.0 11.0 0.00 0.00 0.00 59 1025.4
20260906091547 70 140 3.0 12.0 0.00 0.00 0.00 60 1025.5
20260906091030 70 121 6.0 12.0 0.00 0.00 0.00 60 1025.5
20260906090534 69 120 5.0 15.0 0.00 0.00 0.00 61 1025.6
20260906090037 69 121 6.0 15.0 0.00 0.00 0.00 61 1025.7
20260906085524 69 105 6.0 15.0 0.00 0.00 0.00 63 1025.8
20260906085032 69 136 3.0 10.0 0.00 0.00 0.00 65 1025.8
20260906084522 68 188 4.0 10.0 0.00 0.00 0.00 65 1025.8
20260906084019 68 75 4.0 10.0 0.00 0.00 0.00 67 1025.9
20260906083529 68 100 4.0 10.0 0.00 0.00 0.00 68 1026.0
20260906083038 68 115 3.0 9.0 0.00 0.00 0.00 69 1026.0
20260906082525 67 119 3.0 11.0 0.00 0.00 0.00 70 1025.9
20260906082033 67 143 2.0 12.0 0.00 0.00 0.00 70 1026.1
20260906081538 67 103 3.0 12.0 0.00 0.00 0.00 70 1026.1
20260906081025 67 102 5.0 9.0 0.00 0.00 0.00 71 1026.1
20260906080535 66 140 5.0 9.0 0.00 0.00 0.00 72 1025.9
20260906080036 66 164 3.0 9.0 0.00 0.00 0.00 74 1025.8
20260906075545 65 123 4.0 9.0 0.00 0.00 0.00 75 1025.9
20260906075028 65 121 4.0 8.0 0.00 0.00 0.00 77 1025.8
20260906074536 64 119 2.0 11.0 0.00 0.00 0.00 79 1025.8
20260906074043 64 119 4.0 12.0 0.00 0.00 0.00 80 1025.8
20260906073529 63 125 4.0 12.0 0.00 0.00 0.00 82 1025.8
20260906073033 63 120 2.0 8.0 0.00 0.00 0.00 84 1025.7
20260906072522 62 140 2.0 11.0 0.00 0.00 0.00 85 1025.6
20260906072030 62 113 3.0 11.0 0.00 0.00 0.00 87 1025.7
20260906071539 62 111 2.0 7.0 0.00 0.00 0.00 89 1025.8
20260906071028 61 126 2.0 5.0 0.00 0.00 0.00 90 1025.9
20260906070552 61 124 2.0 6.0 0.00 0.00 0.00 91 1026.1
20260906070033 60 138 2.0 6.0 0.00 0.00 0.00 92 1026.1
20260906065521 59 117 2.0 5.0 0.00 0.00 0.00 92 1026.2
20260906065028 59 138 0.0 6.0 0.00 0.00 0.00 93 1026.1
20260906064553 59 140 1.0 6.0 0.00 0.00 0.00 93 1026.1
20260906064020 58 128 1.0 4.0 0.00 0.00 0.00 93 1026.2
20260906063529 58 128 1.0 4.0 0.00 0.00 0.00 93 1026.2
20260906063037 58 128 0.0 7.0 0.00 0.00 0.00 93 1026.1
20260906062528 58 108 2.0 7.0 0.00 0.00 0.00 93 1026.1
20260906062032 58 144 2.0 5.0 0.00 0.00 0.00 93 1026.1
20260906061521 58 139 2.0 5.0 0.00 0.00 0.00 93 1026.0
20260906061027 58 149 2.0 4.0 0.00 0.00 0.00 93 1026.0
20260906060556 58 136 2.0 5.0 0.00 0.00 0.00 93 1026.0
20260906060031 57 152 2.0 5.0 0.00 0.00 0.00 93 1025.9
20260906055540 57 140 1.0 5.0 0.00 0.00 0.00 93 1025.8
20260906055030 57 140 2.0 5.0 0.00 0.00 0.00 93 1025.8
20260906054540 57 118 1.0 6.0 0.00 0.00 0.00 93 1025.7
20260906054029 57 119 1.0 3.0 0.00 0.00 0.00 93 1025.7
20260906053555 57 93 0.0 3.0 0.00 0.00 0.00 93 1025.5
20260906053022 57 131 1.0 3.0 0.00 0.00 0.00 93 1025.7
20260906052552 57 131 1.0 4.0 0.00 0.00 0.00 93 1025.8
20260906052039 57 131 1.0 4.0 0.00 0.00 0.00 93 1025.6
20260906051527 57 142 2.0 6.0 0.00 0.00 0.00 93 1025.8
20260906051029 57 142 2.0 6.0 0.00 0.00 0.00 93 1025.7
20260906050540 57 154 2.0 6.0 0.00 0.00 0.00 93 1025.7
20260906050022 57 140 1.0 4.0 0.00 0.00 0.00 93 1025.7
20260906045527 57 140 2.0 4.0 0.00 0.00 0.00 93 1025.8
20260906045029 57 116 1.0 2.0 0.00 0.00 0.00 93 1025.8
20260906044538 57 116 1.0 3.0 0.00 0.00 0.00 93 1025.7
20260906044025 57 115 0.0 3.0 0.00 0.00 0.00 93 1025.8
20260906043535 57 115 0.0 2.0 0.00 0.00 0.00 93 1025.7
20260906043023 57 115 0.0 3.0 0.00 0.00 0.00 93 1025.8
20260906042528 57 115 1.0 3.0 0.00 0.00 0.00 93 1025.8
20260906042036 56 132 0.0 2.0 0.00 0.00 0.00 93 1025.8
20260906041526 56 130 0.0 2.0 0.00 0.00 0.00 93 1025.9
20260906041034 56 139 0.0 3.0 0.00 0.00 0.00 93 1025.9
20260906040543 56 103 0.0 3.0 0.00 0.00 0.00 93 1025.8
20260906040040 56 103 2.0 3.0 0.00 0.00 0.00 92 1025.8
20260906035527 56 98 0.0 2.0 0.00 0.00 0.00 92 1025.9
20260906035100 56 98 0.0 2.0 0.00 0.00 0.00 92 1026.0
20260906034527 56 98 0.0 2.0 0.00 0.00 0.00 92 1025.9
20260906034031 56 98 0.0 2.0 0.00 0.00 0.00 92 1026.0
20260906033520 56 98 0.0 2.0 0.00 0.00 0.00 92 1026.1
20260906033048 56 98 0.0 1.0 0.00 0.00 0.00 92 1026.0
20260906032537 56 98 0.0 1.0 0.00 0.00 0.00 92 1026.2
20260906032025 55 98 0.0 2.0 0.00 0.00 0.00 92 1026.2
20260906031531 55 98 1.0 2.0 0.00 0.00 0.00 92 1026.1
20260906031039 55 84 0.0 1.0 0.00 0.00 0.00 92 1026.2
20260906030527 56 84 0.0 1.0 0.00 0.00 0.00 92 1026.3
20260906030028 56 84 0.0 0.0 0.00 0.00 0.00 92 1026.3
20260906025552 56 84 0.0 1.0 0.00 0.00 0.00 92 1026.2
20260906025038 56 84 0.0 1.0 0.00 0.00 0.00 92 1026.3
20260906024524 56 84 0.0 1.0 0.00 0.00 0.00 92 1026.2
20260906024031 56 84 0.0 1.0 0.00 0.00 0.00 92 1026.2
20260906023541 56 84 0.0 0.0 0.00 0.00 0.00 92 1026.2
20260906023019 56 84 0.0 0.0 0.00 0.00 0.00 92 1026.4
20260906022529 56 84 0.0 1.0 0.00 0.00 0.00 92 1026.4
20260906022038 56 84 0.0 2.0 0.00 0.00 0.00 92 1026.4
20260906021528 56 84 1.0 2.0 0.00 0.00 0.00 91 1026.5
20260906021035 56 330 0.0 1.0 0.00 0.00 0.00 91 1026.6
20260906020520 56 330 0.0 1.0 0.00 0.00 0.00 91 1026.6
20260906020042 56 330 0.0 1.0 0.00 0.00 0.00 91 1026.7
20260906015530 56 330 0.0 1.0 0.00 0.00 0.00 91 1026.8
20260906015035 56 330 0.0 1.0 0.00 0.00 0.00 91 1026.8
20260906014520 56 330 0.0 1.0 0.00 0.00 0.00 91 1026.8
20260906014029 56 330 0.0 0.0 0.00 0.00 0.00 91 1026.8
20260906013539 56 330 0.0 0.0 0.00 0.00 0.00 91 1026.8
20260906013025 56 330 0.0 0.0 0.00 0.00 0.00 91 1026.7
20260906012532 56 330 0.0 0.0 0.00 0.00 0.00 90 1026.6
20260906012100 56 330 0.0 0.0 0.00 0.00 0.00 90 1026.6
20260906011529 56 330 0.0 1.0 0.00 0.00 0.00 90 1026.4
20260906011038 56 330 0.0 1.0 0.00 0.00 0.00 90 1026.5
20260906010528 56 330 0.0 1.0 0.00 0.00 0.00 90 1026.6
20260906010029 56 330 0.0 0.0 0.00 0.00 0.00 90 1026.6
20260906005555 56 330 0.0 0.0 0.00 0.00 0.00 90 1026.6
20260906005022 56 330 0.0 0.0 0.00 0.00 0.00 90 1026.7
20260906004548 56 330 0.0 1.0 0.00 0.00 0.00 90 1026.7
20260906004032 56 330 0.0 2.0 0.00 0.00 0.00 90 1026.7
20260906003537 56 330 0.0 2.0 0.00 0.00 0.00 90 1026.7
20260906003022 56 330 0.0 1.0 0.00 0.00 0.00 90 1026.8
20260906002547 56 330 0.0 1.0 0.00 0.00 0.00 90 1026.8
20260906002051 56 330 0.0 0.0 0.00 0.00 0.00 89 1026.8
20260906001600 57 330 0.0 0.0 0.00 0.00 0.00 90 1026.7
20260906001021 57 330 0.0 0.0 0.00 0.00 0.00 89 1026.5
20260906000530 57 330 0.0 0.0 0.00 0.00 0.00 89 1026.5
20260906000050 57 330 0.0 0.0 0.00 0.00 0.00 89 1026.6
20260905235532 57 330 0.0 0.0 0.00 0.00 0.00 89 1026.6
20260905235039 57 330 0.0 0.0 0.00 0.00 0.00 89 1026.6
20260905234527 57 330 0.0 0.0 0.00 0.00 0.00 89 1026.6
20260905234034 57 330 0.0 0.0 0.00 0.00 0.00 89 1026.4
20260905233521 57 330 0.0 0.0 0.00 0.00 0.00 89 1026.4
20260905233042 57 330 0.0 0.0 0.00 0.00 0.00 88 1026.4
20260905232530 58 330 0.0 0.0 0.00 0.00 0.00 88 1026.4
20260905232038 58 330 0.0 0.0 0.00 0.00 0.00 88 1026.4
20260905231526 58 330 0.0 0.0 0.00 0.00 0.00 88 1026.4
20260905231027 58 330 0.0 0.0 0.00 0.00 0.00 88 1026.5
20260905230536 58 330 0.0 0.0 0.00 0.00 0.00 88 1026.4
20260905230056 58 330 0.0 1.0 0.00 0.00 0.00 88 1026.4
20260905225522 58 330 0.0 1.0 0.00 0.00 0.00 87 1026.4
20260905225022 58 330 0.0 0.0 0.00 0.00 0.00 87 1026.5
20260905224525 58 330 0.0 0.0 0.00 0.00 0.00 87 1026.4
20260905224029 58 330 0.0 0.0 0.00 0.00 0.00 87 1026.4
20260905223538 58 330 0.0 0.0 0.00 0.00 0.00 86 1026.3
20260905223024 59 330 0.0 0.0 0.00 0.00 0.00 86 1026.4
20260905222525 59 330 0.0 0.0 0.00 0.00 0.00 86 1026.3
20260905222032 59 330 0.0 0.0 0.00 0.00 0.00 86 1026.3
20260905221520 59 330 0.0 0.0 0.00 0.00 0.00 85 1026.2
20260905221026 59 330 0.0 0.0 0.00 0.00 0.00 85 1026.2
20260905220532 59 330 0.0 0.0 0.00 0.00 0.00 85 1026.3
20260905220026 59 330 0.0 0.0 0.00 0.00 0.00 84 1026.2
20260905215528 59 330 0.0 1.0 0.00 0.00 0.00 84 1026.1
20260905215036 59 330 0.0 1.0 0.00 0.00 0.00 83 1026.1
20260905214544 59 330 0.0 0.0 0.00 0.00 0.00 83 1026.1
20260905214023 60 330 0.0 0.0 0.00 0.00 0.00 82 1026.1
20260905213553 60 330 0.0 0.0 0.00 0.00 0.00 82 1026.1